Torna al catalogo

DELTA 1 DEB

AttivoSSO
NORAD 21373·DEBRIS·🇺🇸 United States

Lanciato Jun 12, 1975 da Vandenberg Space Force Base

Loading…

Prossimi Passaggi (prossime 24 ore)

TLE

AggiornatoSource: Space-Track

Epoca: Sep 14, 2026, 12:12 UTC

1 21373U 75052CT  26257.50894874  .00000057  00000-0  20107-3 0  9997
2 21373  99.9235 149.3579 0074282 171.9576 313.0475 13.32712786716212

Traccia DELTA 1 DEB in tempo reale con AllMySat

Download on the App Store